RH
52 58 59 59 63 64 70 68 74 75 70 70 71 70 65 59 59 64 66 61 55 53 52 50 50 45 45 47 51 54 58 52 51 61 60 53 47 50 47 47 47 62 66
50 57 58 61 65 69 71 71 75 77 78 80 75 74 74 76 79 75 76 70 74 72 63 61 56 58 59 55 50 53 54 63 66 60 65 64 62 72 57 52 57 70 73
45 47 59 62 61 62 66 68 69 74 73 79 78 82 83 84 82 78 77 75 75 81 83 74 67 67 67 65 64 67 72 79 78 86 82 78 77 92 90 74 71 70 74
57 45 39 45 55 59 55 52 50 52 56 62 62 62 60 64 67 69 78 77 73 79 85 82 82 85 88 89 82 79 81 84 85 86 85 84 85 85 95 85 84 96 88
61 55 50 44 46 48 48 48 47 49 45 41 40 40 43 49 56 54 55 60 67 68 76 80 79 79 71 77 90 89 88 88 88 93 95 95 88 82 82 83 81 88 89
68 60 60 54 52 57 62 65 65 65 63 61 53 53 60 65 60 60 56 53 55 51 53 55 63 62 61 67 74 78 83 87 86 88 90 92 90 85 84 86 86 82 85
91 81 69 68 60 57 63 66 72 75 81 86 81 87 91 92 91 85 68 66 67 62 70 69 77 84 85 86 84 86 80 81 84 87 88 85 85 86 86 85 85 86 84
95 91 84 79 79 79 76 80 81 83 85 93 93 93 94 96 96 93 89 82 82 68 81 85 84 88 88 90 88 87 84 85 87 88 85 87 85 79 70 69 72 74 80
98 96 91 87 81 81 84 90 88 95 92 90 94 94 98 98 96 96 95 96 93 80 87 91 91 87 90 93 93 91 91 89 88 86 85 87 82 69 64 64 66 70 74
98 97 94 88 87 86 89 93 93 92 94 95 98 99 97 97 97 95 96 98 96 88 90 90 90 93 94 96 95 95 92 80 82 81 75 70 67 67 67 67 66 69 72
93 96 92 90 92 88 91 98 98 99 98 96 99 99 99 97 96 94 92 94 97 98 95 90 86 86 84 82 81 80 79 79 77 76 76 74 71 69 67 64 61 58 60
94 94 93 95 91 90 94 97 98 99 99 97 99 99 99 99 99 96 95 93 92 92 91 89 89 86 85 83 81 79 78 78 81 80 77 72 68 66 65 61 56 54 53
95 96 97 98 96 93 89 84 90 95 94 93 95 94 95 97 96 94 92 94 95 91 89 90 89 85 79 78 81 80 79 76 76 78 74 69 67 65 60 59 56 52 51
94 95 98 93 92 92 83 76 76 73 82 93 92 88 90 91 92 91 90 87 84 80 83 81 75 72 70 70 71 65 61 60 63 66 64 63 65 60 62 60 54 56 51
89 85 80 81 81 78 74 69 74 72 81 89 87 91 93 93 89 90 89 85 80 77 73 66 66 63 64 62 60 59 58 54 54 54 53 58 61 60 54 51 58 58 52
68 67 66 69 70 74 75 78 76 75 85 79 84 82 85 82 75 70 63 59 61 62 61 58 60 63 60 58 52 48 47 46 48 46 48 51 49 46 46 48 50 50 53
52 55 55 55 56 57 54 51 46 44 44 43 42 43 43 40 37 35 33 32 32 31 31 30 32 33 36 39 43 46 46 48 48 43 43 42 42 45 44 42 44 44 46
35 36 34 33 34 34 36 36 35 35 34 34 33 32 33 32 32 32 33 32 34 36 38 40 39 39 42 43 43 43 43 43 45 45 43 42 41 39 40 40 40 39 38
48 46 45 44 41 38 36 35 32 32 31 31 29 27 26 25 23 22 23 24 25 28 30 32 33 35 38 41 42 44 45 45 41 40 38 38 37 37 36 35 33 33 31
34 28 28 31 33 31 32 30 29 30 27 28 28 31 29 23 19 20 20 20 23 25 27 27 29 31 32 34 40 41 41 38 35 36 37 37 33 31 33 33 34 34 34
27 28 17 22 24 25 27 23 26 27 27 27 27 29 30 29 26 24 29 30 31 32 30 29 30 32 33 37 40 42 43 43 42 42 42 39 36 35 33 32 33 34 33
13 13 15 16 17 20 22 20 21 26 28 28 28 29 29 26 29 33 31 33 35 37 40 41 43 43 46 43 43 45 48 49 46 43 38 35 33 35 34 35 34 37 38
20 20 22 23 20 19 26 28 28 29 30 31 31 31 32 34 34 36 38 38 40 41 42 43 43 46 42 69 59 52 50 54 55 49 47 45 43 41 42 41 44 43 44
20 23 22 25 21 24 30 27 31 31 29 31 31 31 31 31 33 38 38 40 41 44 44 45 45 49 48 68 79 61 62 73 71 67 72 63 59 55 54 57 56 58 60
26 25 25 26 26 28 28 30 30 29 28 32 32 32 32 38 43 44 46 48 48 50 53 50 62 53 83 92 58 60 65 73 84 88 79 74 73 74 72 76 76 75 75
25 26 29 34 36 35 35 34 34 28 26 24 27 30 34 39 37 39 41 41 49 50 50 57 58 62 68 78 88 78 81 89 91 88 82 85 84 81 82 81 84 83 82